Time,TemperatureF,DewpointF,PressureIn,WindDirection,WindDirectionDegrees,WindSpeedMPH,WindSpeedGustMPH,Humidity,HourlyPrecipIn,Conditions,Clouds,dailyrainin,SoftwareType,DateUTC
2013-01-17 00:02:00,14.0,11.0,-100.00,WSW,245,0.0,1.0,88,0.00,,,-99.99,,2013-01-17 07:02:00,
2013-01-17 00:12:00,14.0,11.0,-100.00,SW,215,1.0,2.0,88,0.00,,,-99.99,,2013-01-17 07:12:00,
2013-01-17 00:22:00,14.0,11.0,-100.00,South,175,3.0,4.0,88,0.00,,,-99.99,,2013-01-17 07:22:00,
2013-01-17 00:32:00,15.0,12.0,-100.00,South,170,2.0,4.0,88,0.00,,,-99.99,,2013-01-17 07:32:00,
2013-01-17 00:42:00,15.0,12.0,-100.00,South,180,2.0,3.0,88,0.00,,,-99.99,,2013-01-17 07:42:00,
2013-01-17 00:52:00,15.0,12.0,-100.00,SSE,160,2.0,2.0,88,0.00,,,-99.99,,2013-01-17 07:52:00,
2013-01-17 01:02:00,15.0,12.0,-100.00,SSW,205,1.0,1.0,88,0.00,,,-99.99,,2013-01-17 08:02:00,
2013-01-17 01:12:00,15.0,12.0,-100.00,South,175,2.0,3.0,88,0.00,,,-99.99,,2013-01-17 08:12:00,
2013-01-17 01:22:00,16.0,13.0,-100.00,South,185,3.0,4.0,87,0.00,,,-99.99,,2013-01-17 08:22:00,
2013-01-17 01:32:00,15.0,12.0,-100.00,South,170,4.0,4.0,87,0.00,,,-99.99,,2013-01-17 08:32:00,
2013-01-17 01:43:00,15.0,12.0,-100.00,South,185,4.0,5.0,87,0.00,,,-99.99,,2013-01-17 08:43:00,
2013-01-17 01:52:00,15.0,12.0,-100.00,South,180,2.0,4.0,87,0.00,,,-99.99,,2013-01-17 08:52:00,
2013-01-17 02:02:00,16.0,13.0,-100.00,South,185,3.0,4.0,87,0.00,,,-99.99,,2013-01-17 09:02:00,
2013-01-17 02:12:00,16.0,13.0,-100.00,South,175,3.0,4.0,87,0.00,,,-99.99,,2013-01-17 09:12:00,
2013-01-17 02:22:00,15.0,12.0,-100.00,South,185,6.0,7.0,87,0.00,,,-99.99,,2013-01-17 09:22:00,
2013-01-17 02:32:00,14.0,11.0,-100.00,South,190,6.0,7.0,87,0.00,,,-99.99,,2013-01-17 09:32:00,
2013-01-17 02:42:00,14.0,11.0,-100.00,SSW,195,4.0,7.0,87,0.00,,,-99.99,,2013-01-17 09:42:00,
2013-01-17 02:52:00,15.0,12.0,-100.00,South,170,5.0,7.0,86,0.00,,,-99.99,,2013-01-17 09:52:00,
2013-01-17 03:02:00,16.0,12.0,-100.00,South,170,6.0,6.0,85,0.00,,,-99.99,,2013-01-17 10:02:00,
2013-01-17 03:12:00,16.0,12.0,-100.00,South,180,6.0,6.0,85,0.00,,,-99.99,,2013-01-17 10:12:00,
2013-01-17 03:22:00,16.0,13.0,-100.00,SSE,165,6.0,7.0,84,0.00,,,-99.99,,2013-01-17 10:22:00,
2013-01-17 03:32:00,16.0,13.0,-100.00,SSE,160,7.0,9.0,84,0.00,,,-99.99,,2013-01-17 10:32:00,
2013-01-17 03:42:00,16.0,12.0,-100.00,SSE,165,7.0,9.0,84,0.00,,,-99.99,,2013-01-17 10:42:00,
2013-01-17 03:52:00,15.0,11.0,-100.00,SSE,160,7.0,9.0,84,0.00,,,-99.99,,2013-01-17 10:52:00,
2013-01-17 04:02:00,15.0,12.0,-100.00,South,170,7.0,9.0,84,0.00,,,-99.99,,2013-01-17 11:02:00,
2013-01-17 04:12:00,15.0,11.0,-100.00,South,175,6.0,7.0,84,0.00,,,-99.99,,2013-01-17 11:12:00,
2013-01-17 04:22:00,16.0,12.0,-100.00,South,175,6.0,7.0,84,0.00,,,-99.99,,2013-01-17 11:22:00,
2013-01-17 04:33:00,15.0,11.0,-100.00,South,175,7.0,8.0,84,0.00,,,-99.99,,2013-01-17 11:33:00,
2013-01-17 04:42:00,14.0,10.0,-100.00,South,170,9.0,9.0,84,0.00,,,-99.99,,2013-01-17 11:42:00,
2013-01-17 04:52:00,15.0,11.0,-100.00,South,170,9.0,9.0,85,0.00,,,-99.99,,2013-01-17 11:52:00,
2013-01-17 05:02:00,15.0,11.0,-100.00,South,170,7.0,9.0,84,0.00,,,-99.99,,2013-01-17 12:02:00,
2013-01-17 05:12:00,15.0,11.0,-100.00,SSE,160,7.0,9.0,85,0.00,,,-99.99,,2013-01-17 12:12:00,
2013-01-17 05:22:00,14.0,11.0,-100.00,South,185,7.0,9.0,84,0.00,,,-99.99,,2013-01-17 12:22:00,
2013-01-17 05:32:00,15.0,11.0,-100.00,South,170,7.0,9.0,85,0.00,,,-99.99,,2013-01-17 12:32:00,
2013-01-17 05:42:00,15.0,11.0,-100.00,South,175,6.0,9.0,84,0.00,,,-99.99,,2013-01-17 12:42:00,
2013-01-17 05:52:00,15.0,11.0,-100.00,South,175,6.0,7.0,84,0.00,,,-99.99,,2013-01-17 12:52:00,
2013-01-17 06:03:00,14.0,11.0,-100.00,South,180,4.0,6.0,85,0.00,,,-99.99,,2013-01-17 13:03:00,
2013-01-17 06:12:00,15.0,11.0,-100.00,South,190,5.0,6.0,84,0.00,,,-99.99,,2013-01-17 13:12:00,
2013-01-17 06:22:00,14.0,11.0,-100.00,South,180,6.0,7.0,85,0.00,,,-99.99,,2013-01-17 13:22:00,
2013-01-17 06:33:00,13.0,10.0,-100.00,South,170,6.0,7.0,85,0.00,,,-99.99,,2013-01-17 13:33:00,
2013-01-17 06:43:00,14.0,10.0,-100.00,South,175,4.0,6.0,85,0.00,,,-99.99,,2013-01-17 13:43:00,
2013-01-17 06:52:00,14.0,11.0,-100.00,South,180,4.0,6.0,85,0.00,,,-99.99,,2013-01-17 13:52:00,
2013-01-17 07:03:00,14.0,10.0,-100.00,South,185,4.0,6.0,85,0.00,,,-99.99,,2013-01-17 14:03:00,
2013-01-17 07:12:00,15.0,11.0,-100.00,SSW,195,4.0,5.0,83,0.00,,,-99.99,,2013-01-17 14:12:00,
2013-01-17 07:23:00,14.0,10.0,-100.00,South,185,4.0,6.0,84,0.00,,,-99.99,,2013-01-17 14:23:00,
2013-01-17 07:33:00,14.0,10.0,-100.00,South,180,5.0,6.0,83,0.00,,,-99.99,,2013-01-17 14:33:00,
2013-01-17 07:42:00,14.0,10.0,-100.00,South,190,4.0,6.0,83,0.00,,,-99.99,,2013-01-17 14:42:00,
2013-01-17 07:53:00,16.0,11.0,-100.00,South,180,3.0,4.0,81,0.00,,,-99.99,,2013-01-17 14:53:00,
2013-01-17 08:03:00,17.0,12.0,-100.00,South,170,3.0,4.0,80,0.00,,,-99.99,,2013-01-17 15:03:00,
2013-01-17 08:12:00,17.0,12.0,-100.00,South,180,3.0,4.0,82,0.00,,,-99.99,,2013-01-17 15:12:00,
2013-01-17 08:22:00,17.0,12.0,-100.00,South,185,4.0,5.0,77,0.00,,,-99.99,,2013-01-17 15:22:00,
2013-01-17 08:33:00,18.0,12.0,-100.00,South,170,4.0,4.0,76,0.00,,,-99.99,,2013-01-17 15:33:00,
2013-01-17 08:43:00,18.0,11.0,-100.00,South,175,3.0,4.0,75,0.00,,,-99.99,,2013-01-17 15:43:00,
2013-01-17 08:53:00,18.0,11.0,-100.00,South,175,2.0,3.0,74,0.00,,,-99.99,,2013-01-17 15:53:00,
2013-01-17 09:02:00,19.0,12.0,-100.00,SE,145,0.0,2.0,74,0.00,,,-99.99,,2013-01-17 16:02:00,
2013-01-17 09:12:00,21.0,14.0,-100.00,North,0,1.0,2.0,71,0.00,,,-99.99,,2013-01-17 16:12:00,
2013-01-17 09:22:00,23.0,14.0,-100.00,NNE,30,1.0,2.0,66,0.00,,,-99.99,,2013-01-17 16:22:00,
2013-01-17 09:33:00,24.0,14.0,-100.00,NNW,335,1.0,2.0,65,0.00,,,-99.99,,2013-01-17 16:33:00,
2013-01-17 09:43:00,24.0,14.0,-100.00,NNW,335,1.0,2.0,64,0.00,,,-99.99,,2013-01-17 16:43:00,
2013-01-17 09:52:00,25.0,14.0,-100.00,NE,40,2.0,5.0,62,0.00,,,-99.99,,2013-01-17 16:52:00,
2013-01-17 10:03:00,26.0,15.0,-100.00,ENE,65,3.0,4.0,61,0.00,,,-99.99,,2013-01-17 17:03:00,
2013-01-17 10:12:00,25.0,13.0,-100.00,NE,55,4.0,5.0,60,0.00,,,-99.99,,2013-01-17 17:12:00,
2013-01-17 10:22:00,25.0,13.0,-100.00,NE,55,2.0,6.0,59,0.00,,,-99.99,,2013-01-17 17:22:00,
2013-01-17 10:33:00,26.0,14.0,-100.00,North,0,2.0,6.0,60,0.00,,,-99.99,,2013-01-17 17:33:00,
2013-01-17 10:43:00,28.0,15.0,-100.00,NW,320,1.0,3.0,57,0.00,,,-99.99,,2013-01-17 17:43:00,
2013-01-17 10:53:00,27.0,14.0,-100.00,North,355,1.0,3.0,57,0.00,,,-99.99,,2013-01-17 17:53:00,
2013-01-17 11:03:00,29.0,15.0,-100.00,ESE,120,1.0,3.0,55,0.00,,,-99.99,,2013-01-17 18:03:00,
2013-01-17 11:12:00,30.0,15.0,-100.00,South,180,1.0,6.0,53,0.00,,,-99.99,,2013-01-17 18:12:00,
2013-01-17 11:22:00,30.0,15.0,-100.00,NE,40,1.0,3.0,51,0.00,,,-99.99,,2013-01-17 18:22:00,
2013-01-17 11:33:00,32.0,15.0,-100.00,SE,125,1.0,4.0,49,0.00,,,-99.99,,2013-01-17 18:33:00,
2013-01-17 11:43:00,30.0,14.0,-100.00,NW,310,1.0,4.0,49,0.00,,,-99.99,,2013-01-17 18:43:00,
2013-01-17 11:53:00,31.0,14.0,-100.00,NNW,335,1.0,6.0,49,0.00,,,-99.99,,2013-01-17 18:53:00,
2013-01-17 12:03:00,33.0,18.0,-100.00,WSW,245,1.0,6.0,51,0.00,,,-99.99,,2013-01-17 19:03:00,
2013-01-17 12:12:00,34.0,19.0,-100.00,NW,305,1.0,4.0,53,0.00,,,-99.99,,2013-01-17 19:12:00,
2013-01-17 12:22:00,32.0,17.0,-100.00,SE,145,4.0,7.0,53,0.00,,,-99.99,,2013-01-17 19:22:00,
2013-01-17 12:33:00,31.0,17.0,-100.00,SSW,210,4.0,9.0,55,0.00,,,-99.99,,2013-01-17 19:33:00,
2013-01-17 12:43:00,31.0,17.0,-100.00,South,175,6.0,10.0,55,0.00,,,-99.99,,2013-01-17 19:43:00,
2013-01-17 12:53:00,30.0,16.0,-100.00,South,185,4.0,10.0,55,0.00,,,-99.99,,2013-01-17 19:53:00,
2013-01-17 13:03:00,29.0,15.0,-100.00,SSE,165,6.0,9.0,55,0.00,,,-99.99,,2013-01-17 20:03:00,
2013-01-17 13:12:00,28.0,15.0,-100.00,SSE,150,6.0,11.0,55,0.00,,,-99.99,,2013-01-17 20:12:00,
2013-01-17 13:23:00,29.0,15.0,-100.00,SE,135,6.0,9.0,54,0.00,,,-99.99,,2013-01-17 20:23:00,
2013-01-17 13:33:00,29.0,15.0,-100.00,SSE,150,4.0,9.0,53,0.00,,,-99.99,,2013-01-17 20:33:00,
2013-01-17 13:43:00,30.0,15.0,-100.00,South,175,5.0,10.0,53,0.00,,,-99.99,,2013-01-17 20:43:00,
2013-01-17 13:53:00,31.0,15.0,-100.00,SSE,160,4.0,9.0,52,0.00,,,-99.99,,2013-01-17 20:53:00,
2013-01-17 14:03:00,31.0,15.0,-100.00,SSW,200,4.0,12.0,52,0.00,,,-99.99,,2013-01-17 21:03:00,
2013-01-17 14:13:00,31.0,15.0,-100.00,SW,220,3.0,14.0,51,0.00,,,-99.99,,2013-01-17 21:13:00,
2013-01-17 14:23:00,31.0,15.0,-100.00,SSW,210,2.0,12.0,51,0.00,,,-99.99,,2013-01-17 21:23:00,
2013-01-17 14:33:00,30.0,15.0,-100.00,South,175,6.0,11.0,53,0.00,,,-99.99,,2013-01-17 21:33:00,
2013-01-17 14:43:00,29.0,14.0,-100.00,South,175,4.0,14.0,52,0.00,,,-99.99,,2013-01-17 21:43:00,
2013-01-17 14:53:00,29.0,14.0,-100.00,SSW,195,6.0,11.0,51,0.00,,,-99.99,,2013-01-17 21:53:00,
2013-01-17 15:03:00,30.0,14.0,-100.00,SSE,165,6.0,11.0,51,0.00,,,-99.99,,2013-01-17 22:03:00,
2013-01-17 15:12:00,30.0,14.0,-100.00,South,180,2.0,9.0,51,0.00,,,-99.99,,2013-01-17 22:12:00,
2013-01-17 15:22:00,28.0,13.0,-100.00,SSE,165,6.0,10.0,51,0.00,,,-99.99,,2013-01-17 22:22:00,
2013-01-17 15:33:00,27.0,12.0,-100.00,SSE,165,7.0,11.0,53,0.00,,,-99.99,,2013-01-17 22:33:00,
2013-01-17 15:43:00,26.0,12.0,-100.00,South,175,6.0,11.0,53,0.00,,,-99.99,,2013-01-17 22:43:00,
2013-01-17 15:53:00,26.0,12.0,-100.00,SSE,160,6.0,12.0,54,0.00,,,-99.99,,2013-01-17 22:53:00,
2013-01-17 16:03:00,26.0,12.0,-100.00,SW,215,3.0,13.0,55,0.00,,,-99.99,,2013-01-17 23:03:00,
2013-01-17 16:12:00,25.0,12.0,-100.00,SSW,195,4.0,12.0,56,0.00,,,-99.99,,2013-01-17 23:12:00,
2013-01-17 16:22:00,25.0,12.0,-100.00,SSW,195,4.0,12.0,56,0.00,,,-99.99,,2013-01-17 23:22:00,
2013-01-17 16:33:00,24.0,11.0,-100.00,South,190,4.0,10.0,57,0.00,,,-99.99,,2013-01-17 23:33:00,
2013-01-17 16:43:00,23.0,11.0,-100.00,South,190,6.0,9.0,58,0.00,,,-99.99,,2013-01-17 23:43:00,
2013-01-17 16:52:00,23.0,11.0,-100.00,SSW,200,4.0,9.0,59,0.00,,,-99.99,,2013-01-17 23:52:00,
2013-01-17 17:02:00,23.0,11.0,-100.00,SSW,205,4.0,7.0,59,0.00,,,-99.99,,2013-01-18 00:02:00,
2013-01-17 17:12:00,22.0,11.0,-100.00,South,190,5.0,7.0,60,0.00,,,-99.99,,2013-01-18 00:12:00,
2013-01-17 17:23:00,22.0,11.0,-100.00,SSW,200,6.0,7.0,62,0.00,,,-99.99,,2013-01-18 00:23:00,
2013-01-17 17:32:00,22.0,11.0,-100.00,SSW,195,5.0,7.0,63,0.00,,,-99.99,,2013-01-18 00:32:00,
2013-01-17 17:42:00,21.0,11.0,-100.00,SSW,205,6.0,9.0,63,0.00,,,-99.99,,2013-01-18 00:42:00,
2013-01-17 17:52:00,20.0,10.0,-100.00,South,190,6.0,7.0,65,0.00,,,-99.99,,2013-01-18 00:52:00,
2013-01-17 18:03:00,20.0,11.0,-100.00,SSE,160,7.0,10.0,67,0.00,,,-99.99,,2013-01-18 01:03:00,
2013-01-17 18:12:00,19.0,11.0,-100.00,South,175,7.0,9.0,68,0.00,,,-99.99,,2013-01-18 01:12:00,
2013-01-17 18:22:00,20.0,11.0,-100.00,SSE,160,7.0,10.0,68,0.00,,,-99.99,,2013-01-18 01:22:00,
2013-01-17 18:33:00,19.0,10.0,-100.00,SSE,160,6.0,10.0,68,0.00,,,-99.99,,2013-01-18 01:33:00,
2013-01-17 18:42:00,18.0,10.0,-100.00,SSE,155,6.0,9.0,70,0.00,,,-99.99,,2013-01-18 01:42:00,
2013-01-17 18:52:00,19.0,11.0,-100.00,South,185,6.0,10.0,70,0.00,,,-99.99,,2013-01-18 01:52:00,
2013-01-17 19:02:00,18.0,11.0,-100.00,South,185,6.0,9.0,71,0.00,,,-99.99,,2013-01-18 02:02:00,
2013-01-17 19:12:00,18.0,11.0,-100.00,South,185,7.0,8.0,72,0.00,,,-99.99,,2013-01-18 02:12:00,
2013-01-17 19:22:00,18.0,11.0,-100.00,South,180,5.0,8.0,73,0.00,,,-99.99,,2013-01-18 02:22:00,
2013-01-17 19:32:00,18.0,11.0,-100.00,South,190,7.0,8.0,73,0.00,,,-99.99,,2013-01-18 02:32:00,
2013-01-17 19:42:00,18.0,11.0,-100.00,SSW,205,6.0,8.0,74,0.00,,,-99.99,,2013-01-18 02:42:00,
2013-01-17 19:52:00,18.0,11.0,-100.00,South,185,4.0,9.0,74,0.00,,,-99.99,,2013-01-18 02:52:00,
2013-01-17 20:02:00,18.0,11.0,-100.00,South,180,5.0,7.0,74,0.00,,,-99.99,,2013-01-18 03:02:00,
2013-01-17 20:12:00,17.0,11.0,-100.00,South,180,4.0,7.0,74,0.00,,,-99.99,,2013-01-18 03:12:00,
2013-01-17 20:22:00,16.0,10.0,-100.00,South,180,6.0,7.0,74,0.00,,,-99.99,,2013-01-18 03:22:00,
2013-01-17 20:33:00,17.0,10.0,-100.00,SSW,195,6.0,8.0,75,0.00,,,-99.99,,2013-01-18 03:33:00,
2013-01-17 20:42:00,17.0,11.0,-100.00,SSW,195,5.0,9.0,74,0.00,,,-99.99,,2013-01-18 03:42:00,
2013-01-17 20:52:00,17.0,10.0,-100.00,South,170,4.0,7.0,74,0.00,,,-99.99,,2013-01-18 03:52:00,
2013-01-17 21:02:00,16.0,10.0,-100.00,SSE,155,4.0,7.0,74,0.00,,,-99.99,,2013-01-18 04:02:00,
2013-01-17 21:12:00,15.0,9.0,-100.00,South,185,6.0,7.0,75,0.00,,,-99.99,,2013-01-18 04:12:00,
2013-01-17 21:22:00,15.0,10.0,-100.00,SSW,195,7.0,9.0,76,0.00,,,-99.99,,2013-01-18 04:22:00,
2013-01-17 21:32:00,15.0,9.0,-100.00,South,185,7.0,9.0,77,0.00,,,-99.99,,2013-01-18 04:32:00,
2013-01-17 21:42:00,15.0,9.0,-100.00,South,185,7.0,9.0,78,0.00,,,-99.99,,2013-01-18 04:42:00,
2013-01-17 21:52:00,14.0,9.0,-100.00,South,190,8.0,10.0,78,0.00,,,-99.99,,2013-01-18 04:52:00,
2013-01-17 22:03:00,14.0,8.0,-100.00,SSE,165,8.0,11.0,79,0.00,,,-99.99,,2013-01-18 05:03:00,
2013-01-17 22:12:00,15.0,9.0,-100.00,SSE,160,11.0,12.0,77,0.00,,,-99.99,,2013-01-18 05:12:00,
2013-01-17 22:22:00,16.0,10.0,-100.00,SSE,155,11.0,14.0,77,0.00,,,-99.99,,2013-01-18 05:22:00,
2013-01-17 22:33:00,14.0,9.0,-100.00,SSE,160,9.0,12.0,78,0.00,,,-99.99,,2013-01-18 05:33:00,
2013-01-17 22:42:00,13.0,8.0,-100.00,SSW,200,7.0,12.0,80,0.00,,,-99.99,,2013-01-18 05:42:00,
2013-01-17 22:52:00,13.0,9.0,-100.00,SSW,195,7.0,12.0,81,0.00,,,-99.99,,2013-01-18 05:52:00,
2013-01-17 23:02:00,13.0,8.0,-100.00,South,170,9.0,12.0,81,0.00,,,-99.99,,2013-01-18 06:02:00,
2013-01-17 23:12:00,13.0,8.0,-100.00,South,180,9.0,13.0,81,0.00,,,-99.99,,2013-01-18 06:12:00,
2013-01-17 23:22:00,13.0,8.0,-100.00,South,185,9.0,13.0,82,0.00,,,-99.99,,2013-01-18 06:22:00,
2013-01-17 23:32:00,13.0,8.0,-100.00,South,180,10.0,14.0,82,0.00,,,-99.99,,2013-01-18 06:32:00,
2013-01-17 23:43:00,12.0,8.0,-100.00,South,185,9.0,12.0,82,0.00,,,-99.99,,2013-01-18 06:43:00,
2013-01-17 23:52:00,13.0,9.0,-100.00,South,190,8.0,11.0,82,0.00,,,-99.99,,2013-01-18 06:52:00,